GW4062 Weather Reports


time (UTC)temp
F
wind
direction
speed
knots
gust
knots
rain 1hr
in
rain 24hr
in
rain mn
in
humidity
%
barometer
mb
20260506021530 62 328 0.9 1.7 0.00 0.02 0.02 70 1016.0
20260506020530 62 313 0.0 0.9 0.00 0.02 0.02 71 1016.0
20260506015550 62 332 0.9 1.7 0.00 0.02 0.02 70 1016.0
20260506014550 62 327 0.0 0.9 0.00 0.02 0.02 69 1016.0
20260506013531 62 338 0.0 0.9 0.00 0.02 0.02 69 1016.1
20260506012531 62 329 0.9 0.9 0.00 0.02 0.02 69 1016.1
20260506011551 62 338 0.9 1.7 0.00 0.02 0.02 69 1016.0
20260506010531 62 348 0.9 1.7 0.00 0.02 0.02 69 1016.0
20260506005531 62 10 0.0 1.7 0.00 0.02 0.02 69 1016.0
20260506004531 62 359 0.9 1.7 0.00 0.02 0.02 69 1015.9
20260506003531 62 325 1.7 3.5 0.00 0.02 0.02 69 1015.9
20260506002531 63 345 0.9 1.7 0.00 0.02 0.02 69 1015.8
20260506001633 63 277 0.9 2.6 0.00 0.02 0.02 68 1015.7
20260506000532 63 347 1.7 3.5 0.00 0.02 0.02 68 1015.6
20260505235532 63 340 0.9 3.5 0.00 0.02 0.02 68 1015.6
20260505234532 64 14 0.9 3.5 0.00 0.02 0.02 68 1015.6
20260505233532 64 352 1.7 2.6 0.00 0.02 0.02 67 1015.7
20260505232532 65 35 0.9 1.7 0.00 0.02 0.02 66 1015.7
20260505231532 65 264 0.0 0.9 0.00 0.02 0.02 66 1015.8
20260505230518 65 352 0.9 1.7 0.00 0.02 0.02 66 1015.7
20260505225517 65 351 0.9 2.6 0.00 0.02 0.02 65 1015.7
20260505224533 65 329 0.9 2.6 0.00 0.02 0.02 65 1015.7
20260505223532 65 9 1.7 2.6 0.00 0.02 0.02 64 1015.8
20260505222533 65 358 0.9 2.6 0.00 0.02 0.02 64 1015.9
20260505221533 65 353 1.7 3.5 0.00 0.02 0.02 65 1015.9
20260505220533 64 333 0.9 2.6 0.00 0.02 0.02 66 1015.9
20260505215518 64 2 1.7 2.6 0.00 0.02 0.02 66 1016.0
20260505214518 63 287 1.7 3.5 0.00 0.02 0.02 67 1016.1
20260505213519 63 5 1.7 3.5 0.00 0.02 0.02 67 1016.1
20260505212519 63 352 0.9 2.6 0.00 0.02 0.02 68 1016.2
20260505211519 63 350 0.9 2.6 0.00 0.02 0.02 68 1016.2
20260505210519 63 312 0.9 2.6 0.00 0.02 0.02 68 1016.2
20260505205519 63 346 0.9 2.6 0.00 0.02 0.02 69 1016.1
20260505204519 63 337 1.7 2.6 0.00 0.02 0.02 68 1016.1
20260505203519 64 357 1.7 2.6 0.00 0.02 0.02 67 1016.1
20260505202519 63 356 0.9 2.6 0.00 0.02 0.02 67 1016.1
20260505201520 63 316 0.9 0.9 0.00 0.02 0.02 69 1016.3
20260505200520 62 6 0.9 2.6 0.00 0.02 0.02 69 1016.4
20260505195520 62 347 1.7 2.6 0.00 0.02 0.02 69 1016.4
20260505194520 62 4 0.9 2.6 0.00 0.02 0.02 70 1016.4
20260505193520 63 335 1.7 5.2 0.00 0.02 0.02 68 1016.5
20260505192521 63 320 0.9 2.6 0.00 0.02 0.02 70 1016.6
20260505191520 62 330 0.9 3.5 0.00 0.02 0.02 71 1016.5
20260505190520 62 340 1.7 2.6 0.00 0.02 0.02 71 1016.5
20260505185521 61 357 1.7 3.5 0.00 0.02 0.02 72 1016.4
20260505184521 61 358 1.7 2.6 0.00 0.02 0.02 73 1016.4
20260505183521 60 353 0.9 1.7 0.00 0.02 0.02 75 1016.4
20260505182541 60 326 1.7 2.6 0.00 0.02 0.02 76 1016.5
20260505181522 59 328 0.9 1.7 0.00 0.02 0.02 78 1016.4
20260505180521 59 243 1.7 3.5 0.00 0.02 0.02 77 1016.3
20260505175522 59 344 0.9 1.7 0.00 0.02 0.02 77 1016.3
20260505174542 59 340 1.7 4.3 0.00 0.02 0.02 79 1016.2
20260505173522 58 334 1.7 2.6 0.00 0.02 0.02 80 1016.1
20260505172522 57 310 0.9 2.6 0.00 0.02 0.02 82 1016.0
20260505171603 57 346 0.9 3.5 0.00 0.02 0.02 82 1016.0
20260505170523 57 360 0.9 1.7 0.00 0.02 0.02 82 1016.0
20260505165522 57 339 0.9 1.7 0.00 0.02 0.02 82 1016.0
20260505164544 57 333 0.9 1.7 0.00 0.02 0.02 82 1015.9
20260505163523 57 303 0.9 1.7 0.00 0.02 0.02 83 1015.8
20260505162543 56 306 0.9 1.7 0.00 0.02 0.02 83 1015.8
20260505161523 56 295 0.9 1.7 0.00 0.02 0.02 84 1015.8
20260505160523 56 256 0.9 1.7 0.00 0.02 0.02 85 1015.7
20260505152524 55 324 0.9 0.9 0.00 0.02 0.02 90 1015.5
20260505151524 54 317 0.9 1.7 0.00 0.02 0.02 91 1015.4
20260505150524 54 329 0.9 1.7 0.00 0.02 0.02 91 1015.3
20260505140524 53 309 0.9 0.9 0.00 0.02 0.02 91 1015.0
20260505124525 52 283 0.0 0.9 0.00 0.02 0.02 90 1014.9
20260505123526 52 293 0.9 0.9 0.00 0.02 0.02 90 1014.9
20260505122525 52 325 0.9 1.7 0.00 0.02 0.02 90 1014.9
20260505121526 52 339 0.9 1.7 0.00 0.02 0.02 89 1014.8
20260505120526 52 296 0.9 0.9 0.00 0.02 0.02 89 1014.6
20260505115526 52 323 0.9 0.9 0.00 0.02 0.02 89 1014.9
20260505114526 52 310 0.9 0.9 0.00 0.02 0.02 89 1014.9
20260505113526 52 270 0.0 0.9 0.00 0.02 0.02 88 1014.9
20260505112527 52 293 0.9 0.9 0.00 0.02 0.02 88 1014.9
20260505111526 52 272 0.9 0.9 0.01 0.02 0.02 88 1014.9
20260505110547 52 333 0.9 1.7 0.01 0.02 0.02 87 1014.9
20260505101527 52 313 0.9 1.7 0.01 0.01 0.01 85 1014.9
20260505100528 52 266 0.0 0.9 0.00 0.00 0.00 84 1015.0
20260505095528 52 305 0.9 0.9 0.00 0.00 0.00 84 1015.0
20260505094528 53 309 0.0 0.9 0.00 0.00 0.00 84 1015.0
20260505093528 53 285 0.9 1.7 0.00 0.00 0.00 83 1015.2
20260505092528 53 302 0.0 0.9 0.00 0.00 0.00 82 1015.2
20260505091528 53 313 0.9 0.9 0.00 0.00 0.00 82 1015.2
20260505090528 53 349 0.9 0.9 0.00 0.00 0.00 82 1015.3
20260505085529 53 312 0.9 0.9 0.00 0.00 0.00 81 1015.4
20260505084528 53 309 0.9 0.9 0.00 0.00 0.00 81 1015.5
20260505083529 53 323 0.9 0.9 0.00 0.00 0.00 80 1015.6
20260505082529 53 330 0.9 1.7 0.00 0.00 0.00 79 1015.6
20260505081529 54 328 0.9 1.7 0.00 0.00 0.00 79 1015.7
20260505080549 54 312 0.9 1.7 0.00 0.00 0.00 78 1015.7
20260505075529 54 314 0.9 2.6 0.00 0.00 0.00 77 1015.8
20260505074530 54 313 0.9 1.7 0.00 0.00 0.00 75 1015.9
20260505073530 55 330 1.7 1.7 0.00 0.00 0.00 75 1015.9
20260505072530 55 343 0.9 2.6 0.00 0.00 0.00 74 1015.9
20260505071530 55 320 0.9 1.7 0.00 0.00 0.00 74 1015.7
20260505070530 55 333 0.9 2.6 0.00 0.00 0.00 74 1015.6
20260505065551 55 324 1.7 3.5 0.00 0.00 0.00 74 1015.5
20260505064531 55 314 0.9 2.6 0.00 0.00 0.00 75 1015.5
20260505063531 55 339 0.9 1.7 0.00 0.00 0.00 76 1015.5
20260505062551 55 355 0.9 1.7 0.00 0.00 0.00 77 1015.4
20260505061531 55 335 0.9 1.7 0.00 0.00 0.00 76 1015.2
20260505060531 55 338 0.9 2.6 0.00 0.00 0.00 77 1015.2
20260505055531 55 272 0.9 2.6 0.00 0.00 0.00 77 1015.3
20260505054531 55 305 0.9 1.7 0.00 0.00 0.00 77 1015.3
20260505053532 55 321 1.7 4.3 0.00 0.00 0.00 77 1015.4
20260505052531 56 292 0.9 2.6 0.00 0.00 0.00 77 1015.6
20260505051531 56 309 1.7 3.5 0.00 0.00 0.00 77 1015.6
20260505050531 56 338 1.7 2.6 0.00 0.00 0.00 78 1015.8
20260505041532 56 330 0.9 0.9 0.00 0.00 0.00 79 1015.3
20260505040532 56 338 0.9 1.7 0.00 0.00 0.00 79 1015.3
20260505035532 56 312 0.9 1.7 0.00 0.00 0.00 78 1015.2
20260505034533 56 316 0.9 1.7 0.00 0.00 0.00 78 1015.1
20260505033533 56 325 0.9 2.6 0.00 0.00 0.00 78 1015.0
20260505032534 56 305 0.9 1.7 0.00 0.00 0.00 78 1014.7
20260505031518 57 294 0.9 1.7 0.00 0.00 0.00 77 1014.7
20260505030518 57 339 0.9 1.7 0.00 0.00 0.00 76 1014.7
20260505025519 57 322 0.9 0.9 0.00 0.00 0.00 75 1014.7
20260505024538 58 325 0.9 1.7 0.00 0.00 0.00 74 1014.7
20260505023519 58 326 0.9 0.9 0.00 0.00 0.00 73 1014.7
20260505022520 59 289 0.9 1.7 0.00 0.00 0.00 72 1014.6